Year,Month,Day,Hour,Minute,Value (Times are PST for temperature in C)
2016,07,06,00,00,14.40
2016,07,06,00,01,14.40
2016,07,06,00,02,14.40
2016,07,06,00,03,14.40
2016,07,06,00,04,14.30
2016,07,06,00,05,14.30
2016,07,06,00,06,14.30
2016,07,06,00,07,14.30
2016,07,06,00,08,14.30
2016,07,06,00,09,14.30
2016,07,06,00,10,14.30
2016,07,06,00,11,14.20
2016,07,06,00,12,14.20
2016,07,06,00,13,14.20
2016,07,06,00,14,14.20
2016,07,06,00,15,14.10
2016,07,06,00,16,14.10
2016,07,06,00,17,14.10
2016,07,06,00,18,14.10
2016,07,06,00,19,14.10
2016,07,06,00,20,14.10
2016,07,06,00,21,14.10
2016,07,06,00,22,14.10
2016,07,06,00,23,14.00
2016,07,06,00,24,14.00
2016,07,06,00,25,13.90
2016,07,06,00,26,13.90
2016,07,06,00,27,13.90
2016,07,06,00,28,13.90
2016,07,06,00,29,13.80
2016,07,06,00,30,13.80
2016,07,06,00,31,13.80
2016,07,06,00,32,13.80
2016,07,06,00,33,13.80
2016,07,06,00,34,13.80
2016,07,06,00,35,13.80
2016,07,06,00,36,13.80
2016,07,06,00,37,13.80
2016,07,06,00,38,13.80
2016,07,06,00,39,13.80
2016,07,06,00,40,13.80
2016,07,06,00,41,13.80
2016,07,06,00,42,13.80
2016,07,06,00,43,13.80
2016,07,06,00,44,13.80
2016,07,06,00,45,13.80
2016,07,06,00,46,13.80
2016,07,06,00,47,13.80
2016,07,06,00,48,13.80
2016,07,06,00,49,13.80
2016,07,06,00,50,13.80
2016,07,06,00,51,13.80
2016,07,06,00,52,13.80
2016,07,06,00,53,13.90
2016,07,06,00,54,13.90
2016,07,06,00,55,13.90
2016,07,06,00,56,13.90
2016,07,06,00,57,13.90
2016,07,06,00,58,13.90
2016,07,06,00,59,13.90
2016,07,06,01,00,13.90
2016,07,06,01,01,13.90
2016,07,06,01,02,13.90
2016,07,06,01,03,13.90
2016,07,06,01,04,13.90
2016,07,06,01,05,13.90
2016,07,06,01,06,13.90
2016,07,06,01,07,13.80
2016,07,06,01,08,13.70
2016,07,06,01,09,13.60
2016,07,06,01,10,13.50
2016,07,06,01,11,13.50
2016,07,06,01,12,13.40
2016,07,06,01,13,13.30
2016,07,06,01,14,13.20
2016,07,06,01,15,13.20
2016,07,06,01,16,13.20
2016,07,06,01,17,13.20
2016,07,06,01,18,13.20
2016,07,06,01,19,13.10
2016,07,06,01,20,13.10
2016,07,06,01,21,13.10
2016,07,06,01,22,13.10
2016,07,06,01,23,13.10
2016,07,06,01,24,13.20
2016,07,06,01,25,13.20
2016,07,06,01,26,13.20
2016,07,06,01,27,13.20
2016,07,06,01,28,13.30
2016,07,06,01,29,13.30
2016,07,06,01,30,13.30
2016,07,06,01,31,13.30
2016,07,06,01,32,13.30
2016,07,06,01,33,13.30
2016,07,06,01,34,13.30
2016,07,06,01,35,13.30
2016,07,06,01,36,13.30
2016,07,06,01,37,13.30
2016,07,06,01,38,13.30
2016,07,06,01,39,13.30
2016,07,06,01,40,13.20
2016,07,06,01,41,13.20
2016,07,06,01,42,13.20
2016,07,06,01,43,13.10
2016,07,06,01,44,13.10
2016,07,06,01,45,13.00
2016,07,06,01,46,13.00
2016,07,06,01,47,13.00
2016,07,06,01,48,12.90
2016,07,06,01,49,12.90
2016,07,06,01,50,12.90
2016,07,06,01,51,12.90
2016,07,06,01,52,12.80
2016,07,06,01,53,12.80
2016,07,06,01,54,12.80
2016,07,06,01,55,12.80
2016,07,06,01,56,12.80
2016,07,06,01,57,12.80
2016,07,06,01,58,12.80
2016,07,06,01,59,12.80
2016,07,06,02,00,12.80
2016,07,06,02,01,12.70
2016,07,06,02,02,12.70
2016,07,06,02,03,12.70
2016,07,06,02,04,12.70
2016,07,06,02,05,12.70
2016,07,06,02,06,12.70
2016,07,06,02,07,12.70
2016,07,06,02,08,12.70
2016,07,06,02,09,12.70
2016,07,06,02,10,12.70
2016,07,06,02,11,12.70
2016,07,06,02,12,12.70
2016,07,06,02,13,12.70
2016,07,06,02,14,12.70
2016,07,06,02,15,12.70
2016,07,06,02,16,12.60
2016,07,06,02,17,12.60
2016,07,06,02,18,12.60
2016,07,06,02,19,12.60
2016,07,06,02,20,12.60
2016,07,06,02,21,12.60
2016,07,06,02,22,12.60
2016,07,06,02,23,12.50
2016,07,06,02,24,12.50
2016,07,06,02,25,12.50
2016,07,06,02,26,12.50
2016,07,06,02,27,12.50
2016,07,06,02,28,12.50
2016,07,06,02,29,12.40
2016,07,06,02,30,12.40
2016,07,06,02,31,12.40
2016,07,06,02,32,12.40
2016,07,06,02,33,12.40
2016,07,06,02,34,12.40
2016,07,06,02,35,12.40
2016,07,06,02,36,12.40
2016,07,06,02,37,12.40
2016,07,06,02,38,12.40
2016,07,06,02,39,12.40
2016,07,06,02,40,12.40
2016,07,06,02,41,12.40
2016,07,06,02,42,12.40
2016,07,06,02,43,12.30
2016,07,06,02,44,12.30
2016,07,06,02,45,12.30
2016,07,06,02,46,12.30
2016,07,06,02,47,12.20
2016,07,06,02,48,12.20
2016,07,06,02,49,12.20
2016,07,06,02,50,12.10
2016,07,06,02,51,12.10
2016,07,06,02,52,12.00
2016,07,06,02,53,11.90
2016,07,06,02,54,11.90
2016,07,06,02,55,11.90
2016,07,06,02,56,11.90
2016,07,06,02,57,11.90
2016,07,06,02,58,11.80
2016,07,06,02,59,11.80
2016,07,06,03,00,11.80
2016,07,06,03,01,11.80
2016,07,06,03,02,11.70
2016,07,06,03,03,11.60
2016,07,06,03,04,11.50
2016,07,06,03,05,11.50
2016,07,06,03,06,11.40
2016,07,06,03,07,11.40
2016,07,06,03,08,11.40
2016,07,06,03,09,11.40
2016,07,06,03,10,11.40
2016,07,06,03,11,11.50
2016,07,06,03,12,11.50
2016,07,06,03,13,11.50
2016,07,06,03,14,11.60
2016,07,06,03,15,11.60
2016,07,06,03,16,11.60
2016,07,06,03,17,11.60
2016,07,06,03,18,11.60
2016,07,06,03,19,11.50
2016,07,06,03,20,11.50
2016,07,06,03,21,11.40
2016,07,06,03,22,11.20
2016,07,06,03,23,11.10
2016,07,06,03,24,11.10
2016,07,06,03,25,11.00
2016,07,06,03,26,11.00
2016,07,06,03,27,11.00
2016,07,06,03,28,10.90
2016,07,06,03,29,10.90
2016,07,06,03,30,10.90
2016,07,06,03,31,10.90
2016,07,06,03,32,10.90
2016,07,06,03,33,10.90
2016,07,06,03,34,10.90
2016,07,06,03,35,11.00
2016,07,06,03,36,11.10
2016,07,06,03,37,11.10
2016,07,06,03,38,11.20
2016,07,06,03,39,11.20
2016,07,06,03,40,11.20
2016,07,06,03,41,11.20
2016,07,06,03,42,11.20
2016,07,06,03,43,11.20
2016,07,06,03,44,11.20
2016,07,06,03,45,11.20
2016,07,06,03,46,11.20
2016,07,06,03,47,11.20
2016,07,06,03,48,11.20
2016,07,06,03,49,11.10
2016,07,06,03,50,11.10
2016,07,06,03,51,11.10
2016,07,06,03,52,11.10
2016,07,06,03,53,11.00
2016,07,06,03,54,10.90
2016,07,06,03,55,10.90
2016,07,06,03,56,10.80
2016,07,06,03,57,10.80
2016,07,06,03,58,10.80
2016,07,06,03,59,10.80
2016,07,06,04,00,10.70
2016,07,06,04,01,10.70
2016,07,06,04,02,10.70
2016,07,06,04,03,10.70
2016,07,06,04,04,10.70
2016,07,06,04,05,10.70
2016,07,06,04,06,10.70
2016,07,06,04,07,10.60
2016,07,06,04,08,10.60
2016,07,06,04,09,10.60
2016,07,06,04,10,10.60
2016,07,06,04,11,10.60
2016,07,06,04,12,10.50
2016,07,06,04,13,10.50
2016,07,06,04,14,10.40
2016,07,06,04,15,10.40
2016,07,06,04,16,10.40
2016,07,06,04,17,10.50
2016,07,06,04,18,10.50
2016,07,06,04,19,10.50
2016,07,06,04,20,10.60
2016,07,06,04,21,10.60
2016,07,06,04,22,10.60
2016,07,06,04,23,10.70
2016,07,06,04,24,10.70
2016,07,06,04,25,10.70
2016,07,06,04,26,10.70
2016,07,06,04,27,10.80
2016,07,06,04,28,10.80
2016,07,06,04,29,10.80
2016,07,06,04,30,10.70
2016,07,06,04,31,10.70
2016,07,06,04,32,10.70
2016,07,06,04,33,10.70
2016,07,06,04,34,10.70
2016,07,06,04,35,10.70
2016,07,06,04,36,10.60
2016,07,06,04,37,10.70
2016,07,06,04,38,10.70
2016,07,06,04,39,10.70
2016,07,06,04,40,10.70
2016,07,06,04,41,10.70
2016,07,06,04,42,10.70
2016,07,06,04,43,10.70
2016,07,06,04,44,10.70
2016,07,06,04,45,10.70
2016,07,06,04,46,10.80
2016,07,06,04,47,10.80
2016,07,06,04,48,10.80
2016,07,06,04,49,10.80
2016,07,06,04,50,10.80
2016,07,06,04,51,10.80
2016,07,06,04,52,10.80
2016,07,06,04,53,10.80
2016,07,06,04,54,10.80
2016,07,06,04,55,10.80
2016,07,06,04,56,10.80
2016,07,06,04,57,10.80
2016,07,06,04,58,10.80
2016,07,06,04,59,10.80
2016,07,06,05,00,10.80
2016,07,06,05,01,10.90
2016,07,06,05,02,11.00
2016,07,06,05,03,11.00
2016,07,06,05,04,11.10
2016,07,06,05,05,11.10
2016,07,06,05,06,11.10
2016,07,06,05,07,11.10
2016,07,06,05,08,11.00
2016,07,06,05,09,10.90
2016,07,06,05,10,10.90
2016,07,06,05,11,10.80
2016,07,06,05,12,10.80
2016,07,06,05,13,10.70
2016,07,06,05,14,10.70
2016,07,06,05,15,10.70
2016,07,06,05,16,10.70
2016,07,06,05,17,10.70
2016,07,06,05,18,10.70
2016,07,06,05,19,10.70
2016,07,06,05,20,10.70
2016,07,06,05,21,10.70
2016,07,06,05,22,10.80
2016,07,06,05,23,10.80
2016,07,06,05,24,10.80
2016,07,06,05,25,10.90
2016,07,06,05,26,11.00
2016,07,06,05,27,11.10
2016,07,06,05,28,11.10
2016,07,06,05,29,11.10
2016,07,06,05,30,11.10
2016,07,06,05,31,11.10
2016,07,06,05,32,11.10
2016,07,06,05,33,11.10
2016,07,06,05,34,11.00
2016,07,06,05,35,11.00
2016,07,06,05,36,11.00
2016,07,06,05,37,11.00
2016,07,06,05,38,11.00
2016,07,06,05,39,11.00
2016,07,06,05,40,10.90
2016,07,06,05,41,10.90
2016,07,06,05,42,10.90
2016,07,06,05,43,10.90
2016,07,06,05,44,11.00
2016,07,06,05,45,11.00
2016,07,06,05,46,11.00
2016,07,06,05,47,11.00
2016,07,06,05,48,11.00
2016,07,06,05,49,11.00
2016,07,06,05,50,11.00
2016,07,06,05,51,10.90
2016,07,06,05,52,10.90
2016,07,06,05,53,10.90
2016,07,06,05,54,10.90
2016,07,06,05,55,10.90
2016,07,06,05,56,10.90
2016,07,06,05,57,11.00
2016,07,06,05,58,11.00
2016,07,06,05,59,11.10
2016,07,06,06,00,11.10
2016,07,06,06,01,11.10
2016,07,06,06,02,11.10
2016,07,06,06,03,11.10
2016,07,06,06,04,11.10
2016,07,06,06,05,11.20
2016,07,06,06,06,11.20
2016,07,06,06,07,11.20
2016,07,06,06,08,11.20
2016,07,06,06,09,11.20
2016,07,06,06,10,11.20
2016,07,06,06,11,11.20
2016,07,06,06,12,11.20
2016,07,06,06,13,11.20
2016,07,06,06,14,11.20
2016,07,06,06,15,11.10
2016,07,06,06,16,11.10
2016,07,06,06,17,11.10
2016,07,06,06,18,11.10
2016,07,06,06,19,11.10
2016,07,06,06,20,11.10
2016,07,06,06,21,11.10
2016,07,06,06,22,11.20
2016,07,06,06,23,11.20
2016,07,06,06,24,11.30
2016,07,06,06,25,11.30
2016,07,06,06,26,11.30
2016,07,06,06,27,11.40
2016,07,06,06,28,11.40
2016,07,06,06,29,11.50
2016,07,06,06,30,11.50
2016,07,06,06,31,11.60
2016,07,06,06,32,11.60
2016,07,06,06,33,11.60
2016,07,06,06,34,11.70
2016,07,06,06,35,11.70
2016,07,06,06,36,11.80
2016,07,06,06,37,11.90
2016,07,06,06,38,12.00
2016,07,06,06,39,12.10
2016,07,06,06,40,12.10
2016,07,06,06,41,12.10
2016,07,06,06,42,12.20
2016,07,06,06,43,12.20
2016,07,06,06,44,12.20
2016,07,06,06,45,12.30
2016,07,06,06,46,12.30
2016,07,06,06,47,12.40
2016,07,06,06,48,12.50
2016,07,06,06,49,12.50
2016,07,06,06,50,12.60
2016,07,06,06,51,12.70
2016,07,06,06,52,12.80
2016,07,06,06,53,12.90
2016,07,06,06,54,12.90
2016,07,06,06,55,13.00
2016,07,06,06,56,13.10
2016,07,06,06,57,13.10
2016,07,06,06,58,13.00
2016,07,06,06,59,13.00
2016,07,06,07,00,13.00
2016,07,06,07,01,12.90
2016,07,06,07,02,12.80
2016,07,06,07,03,12.80
2016,07,06,07,04,12.80
2016,07,06,07,05,12.80
2016,07,06,07,06,12.80
2016,07,06,07,07,12.90
2016,07,06,07,08,13.00
2016,07,06,07,09,13.10
2016,07,06,07,10,13.30
2016,07,06,07,11,13.50
2016,07,06,07,12,13.70
2016,07,06,07,13,13.80
2016,07,06,07,14,14.10
2016,07,06,07,15,14.20
2016,07,06,07,16,14.40
2016,07,06,07,17,14.60
2016,07,06,07,18,14.70
2016,07,06,07,19,14.80
2016,07,06,07,20,15.00
2016,07,06,07,21,15.00
2016,07,06,07,22,15.00
2016,07,06,07,23,15.20
2016,07,06,07,24,15.30
2016,07,06,07,25,15.30
2016,07,06,07,26,15.40
2016,07,06,07,27,15.40
2016,07,06,07,28,15.40
2016,07,06,07,29,15.40
2016,07,06,07,30,15.50
2016,07,06,07,31,15.50
2016,07,06,07,32,15.50
2016,07,06,07,33,15.60
2016,07,06,07,34,15.60
2016,07,06,07,35,15.60
2016,07,06,07,36,15.70
2016,07,06,07,37,15.70
2016,07,06,07,38,15.70
2016,07,06,07,39,15.70
2016,07,06,07,40,15.80
2016,07,06,07,41,15.80
2016,07,06,07,42,15.80
2016,07,06,07,43,15.80
2016,07,06,07,44,15.90
2016,07,06,07,45,15.90
2016,07,06,07,46,15.90
2016,07,06,07,47,15.90
2016,07,06,07,48,15.90
2016,07,06,07,49,16.00
2016,07,06,07,50,16.00
2016,07,06,07,51,16.00
2016,07,06,07,52,16.00
2016,07,06,07,53,16.10
2016,07,06,07,54,16.20
2016,07,06,07,55,16.20
2016,07,06,07,56,16.20
2016,07,06,07,57,16.20
2016,07,06,07,58,16.20
2016,07,06,07,59,16.20
2016,07,06,08,00,16.20
2016,07,06,08,01,16.20
2016,07,06,08,02,16.20
2016,07,06,08,03,16.20
2016,07,06,08,04,16.20
2016,07,06,08,05,16.20
2016,07,06,08,06,16.20
2016,07,06,12,38,19.20
2016,07,06,12,39,19.20
2016,07,06,12,40,19.20
2016,07,06,12,41,19.20
2016,07,06,12,42,19.20
2016,07,06,12,43,19.30
2016,07,06,12,44,19.20
2016,07,06,12,45,19.20
2016,07,06,12,46,19.20
2016,07,06,12,47,19.10
2016,07,06,12,48,19.00
2016,07,06,12,49,18.90
2016,07,06,12,50,18.90
2016,07,06,12,51,18.90
2016,07,06,12,52,19.00
2016,07,06,12,53,19.10
2016,07,06,12,54,19.10
2016,07,06,12,55,19.10
2016,07,06,12,56,19.10
2016,07,06,12,57,19.00
2016,07,06,12,58,18.90
2016,07,06,12,59,18.80
2016,07,06,13,00,18.80
2016,07,06,13,01,18.70
2016,07,06,13,02,18.70
2016,07,06,13,03,18.60
2016,07,06,13,04,18.60
2016,07,06,13,05,18.60
2016,07,06,13,06,18.60
2016,07,06,13,07,18.50
2016,07,06,13,08,18.40
2016,07,06,13,09,18.40
2016,07,06,13,10,18.50
2016,07,06,13,11,18.50
2016,07,06,13,12,18.50
2016,07,06,13,13,18.60
2016,07,06,13,14,18.60
2016,07,06,13,15,18.60
2016,07,06,13,16,18.70
2016,07,06,13,17,18.70
2016,07,06,13,18,18.80
2016,07,06,13,19,18.80
2016,07,06,13,20,18.80
2016,07,06,13,21,18.80
2016,07,06,13,22,18.80
2016,07,06,13,23,18.80
2016,07,06,13,24,18.80
2016,07,06,13,25,18.70
2016,07,06,13,26,18.70
2016,07,06,13,27,18.60
2016,07,06,13,28,18.70
2016,07,06,13,29,18.70
2016,07,06,13,30,18.80
2016,07,06,13,31,18.80
2016,07,06,13,32,18.90
2016,07,06,13,33,18.90
2016,07,06,13,34,18.90
2016,07,06,13,35,19.00
2016,07,06,13,36,19.20
2016,07,06,13,37,19.30
2016,07,06,13,38,19.30
2016,07,06,13,39,19.30
2016,07,06,13,40,19.40
2016,07,06,13,41,19.40
2016,07,06,13,42,19.40
2016,07,06,13,43,19.40
2016,07,06,13,44,19.40
2016,07,06,13,45,19.50
2016,07,06,13,46,19.50
2016,07,06,13,47,19.40
2016,07,06,13,48,19.30
2016,07,06,13,49,19.30
2016,07,06,13,50,19.30
2016,07,06,13,51,19.40
2016,07,06,13,52,19.40
2016,07,06,13,53,19.40
2016,07,06,13,54,19.40
2016,07,06,13,55,19.50
2016,07,06,13,56,19.50
2016,07,06,13,57,19.60
2016,07,06,13,58,19.60
2016,07,06,13,59,19.60
2016,07,06,14,00,19.60
2016,07,06,14,01,19.60
2016,07,06,14,02,19.60
2016,07,06,14,03,19.60
2016,07,06,14,04,19.60
2016,07,06,14,05,19.50
2016,07,06,14,06,19.50
2016,07,06,14,07,19.60
2016,07,06,14,08,19.70
2016,07,06,14,09,19.70
2016,07,06,14,10,19.80
2016,07,06,14,11,19.90
2016,07,06,14,12,19.90
2016,07,06,14,13,19.90
2016,07,06,14,14,19.90
2016,07,06,14,15,19.90
2016,07,06,14,16,20.10
2016,07,06,14,17,20.10
2016,07,06,14,18,20.10
2016,07,06,14,19,20.00
2016,07,06,14,20,20.10
2016,07,06,14,21,20.00
2016,07,06,14,22,19.80
2016,07,06,14,23,19.80
2016,07,06,14,24,19.80
2016,07,06,14,25,19.80
2016,07,06,14,26,19.70
2016,07,06,14,27,19.70
2016,07,06,14,28,19.70
2016,07,06,14,29,19.70
2016,07,06,14,30,19.90
2016,07,06,14,31,20.00
2016,07,06,14,32,20.00
2016,07,06,14,33,20.10
2016,07,06,14,34,20.20
2016,07,06,14,35,20.10
2016,07,06,14,36,20.00
2016,07,06,14,37,20.00
2016,07,06,14,38,20.00
2016,07,06,14,39,20.00
2016,07,06,14,40,20.00
2016,07,06,14,41,19.90
2016,07,06,14,42,19.90
2016,07,06,14,43,19.90
2016,07,06,14,44,19.90
2016,07,06,14,45,19.90
2016,07,06,14,46,19.90
2016,07,06,14,47,19.90
2016,07,06,14,48,19.90
2016,07,06,14,49,19.80
2016,07,06,14,50,19.80
2016,07,06,14,51,19.80
2016,07,06,14,52,19.80
2016,07,06,14,53,19.80
2016,07,06,14,54,19.80
2016,07,06,14,55,19.80
2016,07,06,14,56,19.80
2016,07,06,14,57,19.70
2016,07,06,14,58,19.70
2016,07,06,14,59,19.70
2016,07,06,15,00,19.80
2016,07,06,15,01,19.80
2016,07,06,15,02,19.70
2016,07,06,15,03,19.60
2016,07,06,15,04,19.60
2016,07,06,15,05,19.80
2016,07,06,15,06,19.80
2016,07,06,15,07,19.80
2016,07,06,15,08,19.90
2016,07,06,15,09,19.90
2016,07,06,15,10,20.00
2016,07,06,15,11,20.00
2016,07,06,15,12,19.90
2016,07,06,15,13,19.90
2016,07,06,15,14,19.70
2016,07,06,15,15,19.70
2016,07,06,15,16,19.60
2016,07,06,15,17,19.60
2016,07,06,15,18,19.60
2016,07,06,15,19,19.60
2016,07,06,15,20,19.70
2016,07,06,15,21,19.70
2016,07,06,15,22,19.70
2016,07,06,15,23,19.70
2016,07,06,15,24,19.80
2016,07,06,15,25,19.80
2016,07,06,15,26,19.80
2016,07,06,15,27,19.80
2016,07,06,15,28,19.80
2016,07,06,15,29,19.70
2016,07,06,15,30,19.70
2016,07,06,15,31,19.70
2016,07,06,15,32,19.70
2016,07,06,15,33,19.70
2016,07,06,15,34,19.70
2016,07,06,15,35,19.60
2016,07,06,15,36,19.60
2016,07,06,15,37,19.60
2016,07,06,15,38,19.60
2016,07,06,15,39,19.60
2016,07,06,15,40,19.70
2016,07,06,15,41,19.80
2016,07,06,15,42,19.80
2016,07,06,15,43,19.80
2016,07,06,15,44,19.80
2016,07,06,15,45,19.80
2016,07,06,15,46,19.80
2016,07,06,15,47,19.80
2016,07,06,15,48,19.80
2016,07,06,15,49,19.80
2016,07,06,15,50,19.80
2016,07,06,15,51,19.90
2016,07,06,15,52,19.90
2016,07,06,15,53,19.90
2016,07,06,15,54,19.90
2016,07,06,15,55,19.90
2016,07,06,15,56,19.80
2016,07,06,15,57,19.90
2016,07,06,15,58,19.90
2016,07,06,15,59,20.00
2016,07,06,16,00,20.10
2016,07,06,16,01,20.10
2016,07,06,16,02,20.10
2016,07,06,16,03,20.10
2016,07,06,16,04,20.20
2016,07,06,16,05,20.10
2016,07,06,16,06,20.20
2016,07,06,16,07,20.30
2016,07,06,16,08,20.40
2016,07,06,16,09,20.40
2016,07,06,16,10,20.30
2016,07,06,16,11,20.30
2016,07,06,16,12,20.30
2016,07,06,16,13,20.30
2016,07,06,16,14,20.30
2016,07,06,16,15,20.30
2016,07,06,16,16,20.40
2016,07,06,16,17,20.50
2016,07,06,16,18,20.40
2016,07,06,16,19,20.40
2016,07,06,16,20,20.40
2016,07,06,16,21,20.30
2016,07,06,16,22,20.30
2016,07,06,16,23,20.20
2016,07,06,16,24,20.30
2016,07,06,16,25,20.30
2016,07,06,16,26,20.30
2016,07,06,16,27,20.40
2016,07,06,16,28,20.40
2016,07,06,16,29,20.30
2016,07,06,16,30,20.30
2016,07,06,16,31,20.30
2016,07,06,16,32,20.30
2016,07,06,16,33,20.30
2016,07,06,16,34,20.30
2016,07,06,16,35,20.30
2016,07,06,16,36,20.30
2016,07,06,16,37,20.30
2016,07,06,16,38,20.30
2016,07,06,16,39,20.20
2016,07,06,16,40,20.10
2016,07,06,16,41,20.10
2016,07,06,16,42,20.10
2016,07,06,16,43,20.10
2016,07,06,16,44,20.10
2016,07,06,16,45,20.10
2016,07,06,16,46,20.10
2016,07,06,16,47,20.10
2016,07,06,16,48,20.20
2016,07,06,16,49,20.30
2016,07,06,16,50,20.30
2016,07,06,16,51,20.30
2016,07,06,16,52,20.30
2016,07,06,16,53,20.30
2016,07,06,16,54,20.30
2016,07,06,16,55,20.20
2016,07,06,16,56,20.10
2016,07,06,16,57,20.10
2016,07,06,16,58,20.10
2016,07,06,16,59,20.10
2016,07,06,17,00,20.10
2016,07,06,17,01,20.10
2016,07,06,17,02,20.10
2016,07,06,17,03,20.10
2016,07,06,17,04,20.10
2016,07,06,17,05,20.10
2016,07,06,17,06,20.10
2016,07,06,17,07,20.10
2016,07,06,17,08,20.00
2016,07,06,17,09,19.90
2016,07,06,17,10,19.80
2016,07,06,17,11,19.80
2016,07,06,17,12,19.80
2016,07,06,17,13,19.80
2016,07,06,17,14,19.80
2016,07,06,17,15,19.80
2016,07,06,17,16,19.80
2016,07,06,17,17,19.80
2016,07,06,17,18,19.70
2016,07,06,17,19,19.70
2016,07,06,17,20,19.70
2016,07,06,17,21,19.70
2016,07,06,17,22,19.70
2016,07,06,17,23,19.70
2016,07,06,17,24,19.80
2016,07,06,17,25,19.80
2016,07,06,17,26,19.80
2016,07,06,17,27,19.80
2016,07,06,17,28,19.80
2016,07,06,17,29,19.80
2016,07,06,17,30,19.80
2016,07,06,17,31,19.90
2016,07,06,17,32,19.90
2016,07,06,17,33,19.80
2016,07,06,17,34,19.80
2016,07,06,17,35,19.80
2016,07,06,17,36,19.70
2016,07,06,17,37,19.80
2016,07,06,17,38,19.70
2016,07,06,17,39,19.70
2016,07,06,17,40,19.70
2016,07,06,17,41,19.80
2016,07,06,17,42,19.80
2016,07,06,17,43,19.80
2016,07,06,17,44,19.80
2016,07,06,17,45,19.90
2016,07,06,17,46,19.90
2016,07,06,17,47,19.90
2016,07,06,17,48,19.90
2016,07,06,17,49,19.90
2016,07,06,17,50,19.90
2016,07,06,17,51,19.90
2016,07,06,17,52,20.00
2016,07,06,17,53,20.00
2016,07,06,17,54,20.00
2016,07,06,17,55,19.90
2016,07,06,17,56,19.90
2016,07,06,17,57,19.90
2016,07,06,17,58,19.90
2016,07,06,17,59,19.90
2016,07,06,18,00,20.00
2016,07,06,18,01,20.00
2016,07,06,18,02,20.00
2016,07,06,18,03,20.10
2016,07,06,18,04,20.10
2016,07,06,18,05,20.10
2016,07,06,18,06,20.10
2016,07,06,18,07,20.10
2016,07,06,18,08,20.10
2016,07,06,18,09,20.00
2016,07,06,18,10,20.00
2016,07,06,18,11,20.00
2016,07,06,18,12,19.90
2016,07,06,18,13,19.90
2016,07,06,18,14,19.80
2016,07,06,18,15,19.80
2016,07,06,18,16,19.70
2016,07,06,18,17,19.80
2016,07,06,18,18,19.80
2016,07,06,18,19,19.80
2016,07,06,18,20,19.90
2016,07,06,18,21,20.00
2016,07,06,18,22,19.90
2016,07,06,18,23,19.90
2016,07,06,18,24,19.90
2016,07,06,18,25,19.80
2016,07,06,18,26,19.70
2016,07,06,18,27,19.70
2016,07,06,18,28,19.60
2016,07,06,18,29,19.60
2016,07,06,18,30,19.60
2016,07,06,18,31,19.60
2016,07,06,18,32,19.60
2016,07,06,18,33,19.60
2016,07,06,18,34,19.60
2016,07,06,18,35,19.60
2016,07,06,18,36,19.60
2016,07,06,18,37,19.60
2016,07,06,18,38,19.60
2016,07,06,18,39,19.60
2016,07,06,18,40,19.60
2016,07,06,18,41,19.60
2016,07,06,18,42,19.60
2016,07,06,18,43,19.60
2016,07,06,18,44,19.60
2016,07,06,18,45,19.60
2016,07,06,18,46,19.60
2016,07,06,18,47,19.60
2016,07,06,18,48,19.60
2016,07,06,18,49,19.60
2016,07,06,18,50,19.70
2016,07,06,18,51,19.70
2016,07,06,18,52,19.70
2016,07,06,18,53,19.70
2016,07,06,18,54,19.70
2016,07,06,18,55,19.70
2016,07,06,18,56,19.60
2016,07,06,18,57,19.60
2016,07,06,18,58,19.60
2016,07,06,18,59,19.60
2016,07,06,19,00,19.50
2016,07,06,19,01,19.50
2016,07,06,19,02,19.50
2016,07,06,19,03,19.60
2016,07,06,19,04,19.60
2016,07,06,19,05,19.60
2016,07,06,19,06,19.60
2016,07,06,19,07,19.60
2016,07,06,19,08,19.60
2016,07,06,19,09,19.60
2016,07,06,19,10,19.60
2016,07,06,19,11,19.60
2016,07,06,19,12,19.60
2016,07,06,19,13,19.60
2016,07,06,19,14,19.60
2016,07,06,19,15,19.50
2016,07,06,19,16,19.50
2016,07,06,19,17,19.40
2016,07,06,19,18,19.40
2016,07,06,19,19,19.40
2016,07,06,19,20,19.40
2016,07,06,19,21,19.40
2016,07,06,19,22,19.30
2016,07,06,19,23,19.30
2016,07,06,19,24,19.30
2016,07,06,19,25,19.30
2016,07,06,19,26,19.30
2016,07,06,19,27,19.30
2016,07,06,19,28,19.30
2016,07,06,19,29,19.30
2016,07,06,19,30,19.30
2016,07,06,19,31,19.30
2016,07,06,19,32,19.30
2016,07,06,19,33,19.30
2016,07,06,19,34,19.30
2016,07,06,19,35,19.30
2016,07,06,19,36,19.20
2016,07,06,19,37,19.30
2016,07,06,19,38,19.30
2016,07,06,19,39,19.30
2016,07,06,19,40,19.30
2016,07,06,19,41,19.20
2016,07,06,19,42,19.20
2016,07,06,19,43,19.20
2016,07,06,19,44,19.10
2016,07,06,19,45,19.10
2016,07,06,19,46,19.10
2016,07,06,19,47,19.00
2016,07,06,19,48,19.00
2016,07,06,19,49,19.00
2016,07,06,19,50,18.90
2016,07,06,19,51,18.90
2016,07,06,19,52,18.90
2016,07,06,19,53,18.90
2016,07,06,19,54,18.90
2016,07,06,19,55,18.90
2016,07,06,19,56,18.90
2016,07,06,19,57,18.80
2016,07,06,19,58,18.80
2016,07,06,19,59,18.80
2016,07,06,20,00,18.80
2016,07,06,20,01,18.80
2016,07,06,20,02,18.80
2016,07,06,20,03,18.80
2016,07,06,20,04,18.80
2016,07,06,20,05,18.80
2016,07,06,20,06,18.80
2016,07,06,20,07,18.80
2016,07,06,20,08,18.80
2016,07,06,20,09,18.80
2016,07,06,20,10,18.80
2016,07,06,20,11,18.80
2016,07,06,20,12,18.80
2016,07,06,20,13,18.80
2016,07,06,20,14,18.80
2016,07,06,20,15,18.80
2016,07,06,20,16,18.80
2016,07,06,20,17,18.80
2016,07,06,20,18,18.80
2016,07,06,20,19,18.80
2016,07,06,20,20,18.80
2016,07,06,20,21,18.80
2016,07,06,20,22,18.80
2016,07,06,20,23,18.80
2016,07,06,20,24,18.80
2016,07,06,20,25,18.80
2016,07,06,20,26,18.70
2016,07,06,20,27,18.70
2016,07,06,20,28,18.70
2016,07,06,20,29,18.70
2016,07,06,20,30,18.70
2016,07,06,20,31,18.70
2016,07,06,20,32,18.70
2016,07,06,20,33,18.70
2016,07,06,20,34,18.70
2016,07,06,20,35,18.70
2016,07,06,20,36,18.70
2016,07,06,20,37,18.70
2016,07,06,20,38,18.80
2016,07,06,20,39,18.80
2016,07,06,20,40,18.80
2016,07,06,20,41,18.80
2016,07,06,20,42,18.80
2016,07,06,20,43,18.70
2016,07,06,20,44,18.70
2016,07,06,20,45,18.70
2016,07,06,20,46,18.70
2016,07,06,20,47,18.70
2016,07,06,20,48,18.70
2016,07,06,20,49,18.70
2016,07,06,20,50,18.70
2016,07,06,20,51,18.70
2016,07,06,20,52,18.70
2016,07,06,20,53,18.70
2016,07,06,20,54,18.70
2016,07,06,20,55,18.70
2016,07,06,20,56,18.70
2016,07,06,20,57,18.70
2016,07,06,20,58,18.70
2016,07,06,20,59,18.60
2016,07,06,21,00,18.60
2016,07,06,21,01,18.60
2016,07,06,21,02,18.60
2016,07,06,21,03,18.60
2016,07,06,21,04,18.60
2016,07,06,21,05,18.60
2016,07,06,21,06,18.60
2016,07,06,21,07,18.60
2016,07,06,21,08,18.60
2016,07,06,21,09,18.60
2016,07,06,21,10,18.60
2016,07,06,21,11,18.60
2016,07,06,21,12,18.60
2016,07,06,21,13,18.60
2016,07,06,21,14,18.60
2016,07,06,21,15,18.60
2016,07,06,21,16,18.60
2016,07,06,21,17,18.60
2016,07,06,21,18,18.60
2016,07,06,21,19,18.60
2016,07,06,21,20,18.60
2016,07,06,21,21,18.70
2016,07,06,21,22,18.60
2016,07,06,21,23,18.60
2016,07,06,21,24,18.60
2016,07,06,21,25,18.60
2016,07,06,21,26,18.70
2016,07,06,21,27,18.60
2016,07,06,21,28,18.70
2016,07,06,21,29,18.70
2016,07,06,21,30,18.60
2016,07,06,21,31,18.60
2016,07,06,21,32,18.60
2016,07,06,21,33,18.60
2016,07,06,21,34,18.60
2016,07,06,21,35,18.60
2016,07,06,21,36,18.60
2016,07,06,21,37,18.60
2016,07,06,21,38,18.60
2016,07,06,21,39,18.60
2016,07,06,21,40,18.50
2016,07,06,21,41,18.40
2016,07,06,21,42,18.40
2016,07,06,21,43,18.30
2016,07,06,21,44,18.30
2016,07,06,21,45,18.30
2016,07,06,21,46,18.30
2016,07,06,21,47,18.30
2016,07,06,21,48,18.20
2016,07,06,21,49,18.20
2016,07,06,21,50,18.20